GW5989 Weather Reports


Display with metric or nautical units.
time (UTC)temp
F
wind
direction
speed
MPH
gust
MPH
rain 1hr
in
rain 24hr
in
rain mn
in
humidity
%
barometer
mb
20260506071004 75 132 2.0 8.0 0.00 0.00 0.00 88 1008.8
20260506070504 75 150 2.0 9.0 0.00 0.00 0.00 88 1008.8
20260506062009 75 183 2.0 6.0 0.00 0.00 0.00 88 1009.0
20260506061533 75 191 2.0 6.0 0.00 0.00 0.00 88 1008.9
20260506061010 75 116 2.0 6.0 0.00 0.00 0.00 88 1008.8
20260506060506 75 215 2.0 7.0 0.00 0.00 0.00 88 1008.8
20260506051005 75 159 0.0 3.0 0.00 0.00 0.00 88 1009.0
20260506050506 75 148 1.0 4.0 0.00 0.00 0.00 88 1009.0
20260506045003 75 161 1.0 3.0 0.00 0.00 0.00 87 1009.0
20260506044524 75 148 1.0 5.0 0.00 0.00 0.00 87 1008.9
20260506044005 76 154 1.0 6.0 0.00 0.00 0.00 87 1009.0
20260506043508 76 163 1.0 8.0 0.00 0.00 0.00 87 1008.9
20260506043008 76 140 2.0 9.0 0.00 0.00 0.00 86 1008.8
20260506042507 76 93 2.0 12.0 0.00 0.00 0.00 86 1008.9
20260506042004 76 89 2.0 12.0 0.00 0.00 0.00 86 1008.9
20260506041508 76 107 2.0 10.0 0.00 0.00 0.00 86 1008.8
20260506041006 76 96 3.0 10.0 0.00 0.00 0.00 86 1008.8
20260506040504 76 128 5.0 10.0 0.00 0.00 0.00 86 1008.7
20260506040033 76 113 3.0 7.0 0.00 0.00 0.00 86 1008.6
20260506035504 76 127 3.0 10.0 0.00 0.00 0.00 86 1008.6
20260506035005 76 164 3.0 10.0 0.00 0.00 0.00 86 1008.5
20260506034513 76 165 2.0 9.0 0.00 0.00 0.00 85 1008.4
20260506034005 76 258 4.0 8.0 0.00 0.00 0.00 85 1008.4
20260506033505 76 136 4.0 6.0 0.00 0.00 0.00 85 1008.3
20260506033019 76 130 3.0 9.0 0.00 0.00 0.00 85 1008.3
20260506032505 76 99 1.0 9.0 0.00 0.00 0.00 84 1008.2
20260506032001 77 126 4.0 9.0 0.00 0.00 0.00 84 1008.2
20260506031514 77 141 4.0 9.0 0.00 0.00 0.00 84 1008.0
20260506031006 77 122 4.0 9.0 0.00 0.00 0.00 84 1007.9
20260506030503 77 130 6.0 9.0 0.00 0.00 0.00 84 1007.8
20260506030009 77 144 5.0 10.0 0.00 0.00 0.00 83 1007.7
20260506025504 77 124 4.0 10.0 0.00 0.00 0.00 83 1007.7
20260506025004 77 148 4.0 9.0 0.00 0.00 0.00 83 1007.6
20260506024520 77 154 4.0 10.0 0.00 0.00 0.00 83 1007.5
20260506024005 78 139 4.0 10.0 0.00 0.00 0.00 82 1007.3
20260506023505 78 215 7.0 10.0 0.00 0.00 0.00 82 1007.3
20260506023019 78 134 6.0 11.0 0.00 0.00 0.00 82 1007.3
20260506022506 78 146 5.0 12.0 0.00 0.00 0.00 82 1007.1
20260506022005 78 130 6.0 12.0 0.00 0.00 0.00 82 1007.1
20260506021522 78 137 5.0 10.0 0.00 0.00 0.00 82 1007.0
20260506021009 78 118 5.0 8.0 0.00 0.00 0.00 81 1007.0
20260506020508 78 153 2.0 6.0 0.00 0.00 0.00 81 1007.0
20260506020008 78 121 1.0 5.0 0.00 0.00 0.00 81 1006.8
20260506015504 78 130 2.0 5.0 0.00 0.00 0.00 80 1006.7
20260506015004 78 119 1.0 5.0 0.00 0.00 0.00 80 1006.7
20260506014514 78 55 2.0 6.0 0.00 0.00 0.00 79 1006.7
20260506014004 79 137 2.0 5.0 0.00 0.00 0.00 79 1006.7
20260506013507 79 117 2.0 4.0 0.00 0.00 0.00 78 1006.8
20260506013014 79 125 2.0 3.0 0.00 0.00 0.00 78 1006.8
20260506012505 79 101 1.0 3.0 0.00 0.00 0.00 77 1006.7
20260506012009 80 107 1.0 2.0 0.00 0.00 0.00 77 1006.7
20260506011523 80 156 1.0 3.0 0.00 0.00 0.00 76 1006.8
20260506011005 80 152 1.0 4.0 0.00 0.00 0.00 76 1006.8
20260506010510 81 136 1.0 4.0 0.00 0.00 0.00 75 1006.8
20260506010022 81 132 2.0 5.0 0.00 0.00 0.00 75 1006.7
20260506005504 81 130 3.0 6.0 0.00 0.00 0.00 74 1006.7
20260506005006 81 147 4.0 6.0 0.00 0.00 0.00 74 1006.6
20260506004520 82 117 3.0 5.0 0.00 0.00 0.00 73 1006.6
20260506004006 82 133 1.0 4.0 0.00 0.00 0.00 73 1006.5
20260506003507 82 119 2.0 4.0 0.00 0.00 0.00 72 1006.4
20260506003016 83 98 2.0 7.0 0.00 0.00 0.00 71 1006.4
20260506002504 83 246 2.0 9.0 0.00 0.00 0.00 71 1006.5
20260506002005 83 144 3.0 9.0 0.00 0.00 0.00 70 1006.2
20260506001520 83 185 1.0 5.0 0.00 0.00 0.00 70 1006.5
20260506001011 83 205 1.0 7.0 0.00 0.00 0.00 70 1006.5
20260506000511 83 148 1.0 7.0 0.00 0.00 0.00 70 1006.4
20260506000023 83 297 0.0 9.0 0.00 0.00 0.00 71 1006.3
20260505235508 83 132 2.0 9.0 0.00 0.00 0.00 71 1006.1
20260505235007 83 114 4.0 8.0 0.00 0.00 0.00 70 1006.1
20260505234509 83 142 3.0 8.0 0.00 0.00 0.00 70 1006.1
20260505234005 83 160 1.0 8.0 0.00 0.00 0.00 70 1006.3
20260505233505 83 120 4.0 7.0 0.00 0.00 0.00 71 1006.3
20260505233017 83 178 3.0 9.0 0.00 0.00 0.00 70 1006.2
20260505232507 84 92 6.0 9.0 0.00 0.00 0.00 69 1006.2
20260505232005 84 142 2.0 8.0 0.00 0.00 0.00 69 1006.3
20260505231528 84 170 3.0 7.0 0.00 0.00 0.00 68 1006.2
20260505231004 84 78 3.0 7.0 0.00 0.00 0.00 68 1006.1
20260505230506 84 178 1.0 8.0 0.00 0.00 0.00 69 1006.0
20260505230028 84 219 2.0 11.0 0.00 0.00 0.00 69 1006.0
20260505225509 84 142 4.0 11.0 0.00 0.00 0.00 68 1006.0
20260505225011 84 296 3.0 9.0 0.00 0.00 0.00 67 1005.9
20260505224524 85 115 3.0 9.0 0.00 0.00 0.00 66 1006.0
20260505224007 85 222 3.0 7.0 0.00 0.00 0.00 67 1006.0
20260505223507 84 167 4.0 10.0 0.00 0.00 0.00 67 1006.0
20260505223014 84 191 3.0 11.0 0.00 0.00 0.00 68 1006.3
20260505222506 84 190 5.0 11.0 0.00 0.00 0.00 67 1006.0
20260505222006 84 146 4.0 10.0 0.00 0.00 0.00 68 1006.1
20260505221516 84 111 5.0 10.0 0.00 0.00 0.00 67 1006.1
20260505221006 85 146 3.0 11.0 0.00 0.00 0.00 67 1006.2
20260505220504 84 280 3.0 11.0 0.00 0.00 0.00 68 1006.2
20260505220019 84 260 6.0 10.0 0.00 0.00 0.00 67 1006.2
20260505215505 85 126 4.0 7.0 0.00 0.00 0.00 65 1006.2
20260505215009 85 213 3.0 9.0 0.00 0.00 0.00 66 1006.4
20260505214525 85 99 3.0 10.0 0.00 0.00 0.00 65 1006.5
20260505214009 85 185 4.0 10.0 0.00 0.00 0.00 66 1006.5
20260505213509 85 128 3.0 8.0 0.00 0.00 0.00 66 1006.5
20260505213026 85 154 3.0 8.0 0.00 0.00 0.00 66 1006.7
20260505212508 85 168 1.0 9.0 0.00 0.00 0.00 66 1006.6
20260505212004 84 202 3.0 9.0 0.00 0.00 0.00 66 1006.6
20260505211516 85 250 3.0 9.0 0.00 0.00 0.00 66 1006.7
20260505211005 85 121 2.0 8.0 0.00 0.00 0.00 67 1006.8
20260505210511 85 218 3.0 10.0 0.00 0.00 0.00 67 1006.8
20260505210006 84 144 3.0 10.0 0.00 0.00 0.00 67 1006.8
20260505205500 84 93 3.0 9.0 0.00 0.00 0.00 68 1006.9
20260505205004 84 202 3.0 9.0 0.00 0.00 0.00 67 1006.9
20260505204505 84 11 3.0 9.0 0.00 0.00 0.00 67 1007.1
20260505204001 84 148 3.0 8.0 0.00 0.00 0.00 66 1007.2
20260505203501 84 181 2.0 8.0 0.00 0.00 0.00 68 1007.4
20260505203007 84 220 4.0 11.0 0.00 0.00 0.00 67 1007.4
20260505202504 83 219 4.0 11.0 0.00 0.00 0.00 68 1007.5
20260505202002 83 216 5.0 8.0 0.00 0.00 0.00 67 1007.5
20260505201507 84 154 5.0 8.0 0.00 0.00 0.00 66 1007.5
20260505201006 84 258 4.0 8.0 0.00 0.00 0.00 67 1007.6
20260505200509 84 248 2.0 9.0 0.00 0.00 0.00 68 1007.6
20260505200015 83 233 4.0 9.0 0.00 0.00 0.00 70 1007.6
20260505195507 82 188 2.0 10.0 0.00 0.00 0.00 71 1007.7
20260505195004 82 210 3.0 10.0 0.00 0.00 0.00 71 1007.8
20260505194507 82 192 3.0 10.0 0.00 0.00 0.00 71 1007.9
20260505194004 81 167 4.0 9.0 0.00 0.00 0.00 71 1008.0
20260505193501 81 271 5.0 10.0 0.00 0.00 0.00 71 1008.0
20260505193004 82 262 4.0 10.0 0.00 0.00 0.00 71 1008.0
20260505192501 82 106 3.0 10.0 0.00 0.00 0.00 72 1008.2
20260505192001 81 180 4.0 10.0 0.00 0.00 0.00 71 1008.3
20260505191511 81 264 2.0 10.0 0.00 0.00 0.00 73 1008.2
20260505190504 81 183 5.0 11.0 0.00 0.00 0.00 71 1008.4
20260505190006 81 109 3.0 10.0 0.00 0.00 0.00 74 1008.5
20260505185504 80 291 2.0 12.0 0.00 0.00 0.00 74 1008.5
20260505184506 79 192 3.0 9.0 0.00 0.00 0.00 75 1008.7
20260505183504 79 213 2.0 9.0 0.00 0.00 0.00 76 1008.8
20260505182503 79 211 2.0 8.0 0.00 0.00 0.00 76 1008.8
20260505182002 78 170 3.0 8.0 0.00 0.00 0.00 77 1008.8
20260505181508 78 209 2.0 9.0 0.00 0.00 0.00 78 1008.9
20260505181003 78 195 5.0 9.0 0.00 0.00 0.00 78 1009.0
20260505180503 77 142 3.0 8.0 0.00 0.00 0.00 79 1009.1
20260505180010 77 165 2.0 8.0 0.00 0.00 0.00 79 1009.1
20260505175504 77 222 3.0 8.0 0.00 0.00 0.00 78 1009.2
20260505175004 78 209 1.0 10.0 0.00 0.00 0.00 79 1009.1
20260505174507 77 183 2.0 10.0 0.00 0.00 0.00 80 1009.2
20260505172504 76 232 4.0 11.0 0.00 0.00 0.00 81 1009.4
20260505171518 76 213 3.0 8.0 0.00 0.00 0.00 81 1009.4
20260505171003 75 321 2.0 8.0 0.00 0.00 0.00 81 1009.5
20260505170505 75 195 3.0 8.0 0.00 0.00 0.00 81 1009.5
20260505170014 75 192 3.0 8.0 0.00 0.00 0.00 82 1009.5
20260505165503 75 195 4.0 10.0 0.00 0.00 0.00 82 1009.5
20260505165006 75 207 2.0 8.0 0.00 0.00 0.00 82 1009.5
20260505164509 75 68 4.0 12.0 0.00 0.00 0.00 82 1009.5
20260505164004 75 218 4.0 12.0 0.00 0.00 0.00 82 1009.4
20260505163504 75 213 2.0 8.0 0.00 0.00 0.00 83 1009.4
20260505163010 74 221 3.0 7.0 0.00 0.00 0.00 83 1009.4
20260505162505 74 225 2.0 7.0 0.00 0.00 0.00 83 1009.6
20260505161512 74 165 2.0 10.0 0.00 0.00 0.00 84 1009.6
20260505161006 73 212 3.0 10.0 0.00 0.00 0.00 85 1009.6
20260505160507 73 148 3.0 8.0 0.00 0.00 0.00 85 1009.6
20260505153010 72 200 3.0 8.0 0.00 0.00 0.00 87 1009.6
20260505152505 72 229 3.0 9.0 0.00 0.00 0.00 87 1009.6
20260505152008 72 171 3.0 9.0 0.00 0.00 0.00 87 1009.4
20260505151516 72 142 4.0 9.0 0.00 0.00 0.00 88 1009.4
20260505150505 72 217 2.0 9.0 0.00 0.00 0.00 88 1009.3
20260505140507 71 197 3.0 8.0 0.00 0.00 0.00 89 1009.1
20260505124005 70 177 2.0 9.0 0.00 0.00 0.00 89 1008.2
20260505123505 70 151 3.0 9.0 0.00 0.00 0.00 89 1008.2
20260505122506 70 157 3.0 8.0 0.00 0.00 0.00 89 1008.1
20260505122011 70 5 3.0 10.0 0.00 0.00 0.00 89 1008.2
20260505121518 70 182 3.0 10.0 0.00 0.00 0.00 89 1008.1
20260505121009 70 198 4.0 10.0 0.00 0.00 0.00 89 1008.1
20260505120508 70 198 3.0 10.0 0.00 0.00 0.00 89 1008.0
20260505120004 70 360 2.0 11.0 0.00 0.00 0.00 89 1007.9
20260505115504 70 251 4.0 11.0 0.00 0.00 0.00 89 1007.9
20260505115003 70 202 3.0 10.0 0.00 0.00 0.00 89 1007.7
20260505114506 70 68 3.0 9.0 0.00 0.00 0.00 89 1007.6
20260505114004 70 203 3.0 12.0 0.00 0.00 0.00 89 1007.8
20260505113504 70 138 2.0 12.0 0.00 0.00 0.00 88 1007.9
20260505113013 70 213 2.0 9.0 0.00 0.00 0.00 88 1008.0
20260505112509 70 247 2.0 9.0 0.00 0.00 0.00 88 1007.9
20260505112006 70 171 3.0 9.0 0.00 0.00 0.00 87 1007.9
20260505111522 70 177 2.0 9.0 0.00 0.00 0.00 87 1007.8
20260505111006 70 209 4.0 10.0 0.00 0.00 0.00 87 1007.9
20260505110507 70 174 5.0 12.0 0.00 0.00 0.00 87 1008.0
20260505102004 70 160 4.0 9.0 0.00 0.00 0.00 87 1008.0
20260505101516 70 135 2.0 7.0 0.00 0.00 0.00 87 1008.0
20260505101007 70 169 4.0 9.0 0.00 0.00 0.00 87 1008.4
20260505100506 69 223 3.0 9.0 0.00 0.00 0.00 87 1008.3
20260505100023 69 226 3.0 11.0 0.00 0.00 0.00 87 1008.0
20260505095507 69 140 4.0 12.0 0.00 0.00 0.00 87 1007.9
20260505095006 69 119 4.0 9.0 0.00 0.00 0.00 87 1008.1
20260505094521 69 217 3.0 8.0 0.00 0.00 0.00 87 1008.1
20260505094003 69 219 2.0 8.0 0.00 0.00 0.00 87 1008.1
20260505093503 69 121 3.0 9.0 0.00 0.00 0.00 87 1008.2
20260505093004 69 212 2.0 10.0 0.00 0.00 0.00 87 1008.3
20260505092502 69 188 4.0 9.0 0.00 0.00 0.00 87 1008.0
20260505092004 69 69 3.0 13.0 0.00 0.00 0.00 87 1008.0
20260505091508 69 182 5.0 13.0 0.00 0.00 0.00 87 1008.2
20260505091004 69 154 3.0 9.0 0.00 0.00 0.00 87 1008.2
20260505090503 70 258 2.0 7.0 0.00 0.00 0.00 87 1008.2
20260505090015 70 213 3.0 12.0 0.00 0.00 0.00 87 1008.2
20260505085504 70 134 3.0 12.0 0.00 0.00 0.00 86 1008.4
20260505085007 70 225 4.0 11.0 0.00 0.00 0.00 86 1008.3
20260505084520 70 146 3.0 9.0 0.00 0.00 0.00 86 1008.2
20260505084010 70 205 4.0 9.0 0.00 0.00 0.00 86 1008.2
20260505083507 70 185 2.0 12.0 0.00 0.00 0.00 86 1008.4
20260505082504 70 204 3.0 11.0 0.00 0.00 0.00 86 1008.8
20260505082004 70 261 3.0 10.0 0.00 0.00 0.00 86 1008.8
20260505081507 70 232 3.0 10.0 0.00 0.00 0.00 86 1008.7
20260505081007 70 188 4.0 10.0 0.00 0.00 0.00 86 1008.7
20260505080505 70 144 4.0 10.0 0.00 0.00 0.00 86 1008.8
20260505080016 70 211 3.0 12.0 0.00 0.00 0.00 86 1008.8
20260505075505 70 249 4.0 12.0 0.00 0.00 0.00 86 1008.9
20260505075009 70 202 4.0 13.0 0.00 0.00 0.00 86 1009.0
20260505074517 70 269 3.0 13.0 0.00 0.00 0.00 86 1009.0
20260505074007 70 204 2.0 10.0 0.00 0.00 0.00 86 1009.1
20260505073509 70 205 3.0 12.0 0.00 0.00 0.00 86 1009.1
20260505073029 70 166 5.0 12.0 0.00 0.00 0.00 86 1009.0
20260505072508 70 65 4.0 12.0 0.00 0.00 0.00 86 1009.2
20260505072003 70 165 4.0 12.0 0.00 0.00 0.00 86 1009.2
20260505071523 70 163 3.0 10.0 0.00 0.00 0.00 86 1009.3